Location: Hurstbourne Priors
(51.2000°N, 1.3667°W)
Time: 22:00:43
(UTC+00:00)

Altair - Pass Details

Date: 15 April 2021
Orbit: 1501 x 1683 km, 47.2° (Epoch: 13 May)

Event Time Altitude Azimuth Distance (km) Brightness Sun altitude
Rises 07:02:23 0° 220° (SW) 4,848 9.8 16.6°
Reaches altitude 10° 07:05:44 10° 214° (SW) 3,839 9.4 17.1°
Maximum altitude 07:14:40 43° 148° (SSE) 2,100 9.0 18.5°
Drops below altitude 10° 07:23:18 10° 81° (E) 3,717 11.2 19.8°
Sets 07:26:29 0° 75° (ENE) 4,682 11.2 20.3°
